{"data":{"norad_id":59470,"intl_designator":"2024-068R","name":"STARLINK-31546","alt_names":[],"object_type":"PAYLOAD","status":"ACTIVE","operator":null,"country":"US","launch_date":"2024-04-10","launch_site_code":"AFETR","launch_vehicle":null,"mission":null,"orbit_class":"UNKNOWN","rcs_meters":null,"size_class":null,"mass_kg":null,"dimensions":null,"purposes":["comms"],"wikipedia_slug":null,"has_3d_model":false,"image_url":null,"decayed_at":null,"tle_current":{"epoch":"2026-09-21T13:57:45.569088Z","epoch_age_seconds":71737,"freshness":"FRESH","line1":"1 59470U 24068R   26264.58177742 -.00000212  00000+0  18141-5 0  9991","line2":"2 59470  43.0023   4.6119 0001023 271.9157  88.1578 15.27576973138526","mean_motion":15.27576973,"eccentricity":0.0001023,"inclination_deg":43.0023,"raan_deg":4.6119,"arg_perigee_deg":271.9157,"mean_anomaly_deg":88.1578,"bstar":1.8141e-6,"rev_number":13852,"period_min":94.26693550977,"perigee_km":482.35625971671,"apogee_km":483.76006024644,"semimajor_km":6861.1951599816,"source":"CELESTRAK","updated_at":"2026-09-22T09:00:48.949908Z"}}}